OE5ERN-10 Weather Reports


time (UTC)temp
C
wind
direction
speed
KPH
gust
KPH
rain 1hr
cm
rain 24hr
cm
rain mn
cm
humidity
%
barometer
mb
20260502162538 25 112 3.2 4.8 0.00 0.00 0.00 22 1022.3
20260502161038 25 112 4.8 4.8 0.00 0.00 0.00 22 1022.5
20260502151038 26 180 3.2 4.8 0.00 0.00 0.00 23 1023.3
20260502122538 25 180 4.8 4.8 0.00 0.00 0.00 22 1025.4
20260502121038 25 112 12.9 12.9 0.00 0.00 0.00 22 1025.7
20260502115539 25 112 4.8 8.0 0.00 0.00 0.00 23 1025.8
20260502114039 25 135 6.4 12.9 0.00 0.00 0.00 23 1026.0
20260502112539 26 90 3.2 4.8 0.00 0.00 0.00 23 1026.2
20260502111039 25 112 3.2 6.4 0.00 0.00 0.00 26 1026.3
20260502105539 25 90 1.6 12.9 0.00 0.00 0.00 25 1026.4
20260502104039 25 90 0.0 8.0 0.00 0.00 0.00 27 1026.6
20260502102539 25 112 8.0 9.7 0.00 0.00 0.00 25 1026.9
20260502101039 27 90 3.2 3.2 0.00 0.00 0.00 26 1027.1
20260502091039 30 90 1.6 9.7 0.00 0.00 0.00 22 1027.8
20260502071039 35 157 0.0 3.2 0.00 0.00 0.00 23 1028.9
20260502065539 34 157 3.2 3.2 0.00 0.00 0.00 23 1029.1
20260502064039 33 0 0.0 0.0 0.00 0.00 0.00 25 1029.2
20260502062539 32 0 0.0 0.0 0.00 0.00 0.00 28 1029.4
20260502061039 28 0 0.0 0.0 0.00 0.00 0.00 33 1029.5
20260502055539 25 22 0.0 3.2 0.00 0.00 0.00 38 1029.4
20260502054039 20 0 0.0 0.0 0.00 0.00 0.00 51 1029.5
20260502052539 8 0 0.0 0.0 0.00 0.00 0.00 80 1029.5
20260502051039 7 0 0.0 0.0 0.00 0.00 0.00 81 1029.5
20260502045539 5 0 0.0 0.0 0.00 0.00 0.00 83 1029.4
20260502044039 5 0 0.0 0.0 0.00 0.00 0.00 83 1029.5
20260502042539 4 0 1.6 1.6 0.00 0.00 0.00 83 1029.4
20260502041039 3 0 0.0 0.0 0.00 0.00 0.00 82 1029.5
20260502035539 3 0 0.0 0.0 0.00 0.00 0.00 82 1029.3
20260502034039 3 0 0.0 0.0 0.00 0.00 0.00 82 1029.3
20260502032539 3 0 0.0 1.6 0.00 0.00 0.00 81 1029.3
20260502031039 3 0 0.0 0.0 0.00 0.00 0.00 80 1029.2
20260502025539 3 0 0.0 0.0 0.00 0.00 0.00 80 1029.3
20260502024039 3 0 0.0 0.0 0.00 0.00 0.00 79 1029.5
20260502022539 4 0 0.0 0.0 0.00 0.00 0.00 79 1029.4
20260502021039 4 0 0.0 0.0 0.00 0.00 0.00 78 1029.4
20260502015539 4 0 0.0 0.0 0.00 0.00 0.00 77 1029.6
20260502014039 5 0 0.0 0.0 0.00 0.00 0.00 77 1029.4
20260502012539 5 0 0.0 0.0 0.00 0.00 0.00 76 1029.6
20260502011039 5 0 0.0 0.0 0.00 0.00 0.00 75 1029.8
20260502005539 5 0 0.0 0.0 0.00 0.00 0.00 74 1029.8
20260502004039 6 0 0.0 0.0 0.00 0.00 0.00 72 1029.8
20260502002539 6 0 0.0 0.0 0.00 0.00 0.00 71 1030.0
20260502001040 6 0 0.0 0.0 0.00 0.00 0.00 70 1030.0
20260501235540 7 0 0.0 0.0 0.00 0.00 0.00 69 1030.1
20260501234040 7 0 0.0 0.0 0.00 0.00 0.00 68 1030.2
20260501232540 7 0 0.0 0.0 0.00 0.00 0.00 66 1030.2
20260501231040 8 0 0.0 0.0 0.00 0.00 0.00 65 1030.3
20260501225540 8 337 0.0 0.0 0.00 0.00 0.00 64 1030.3
20260501224040 8 337 0.0 0.0 0.00 0.00 0.00 63 1030.2
20260501222540 8 337 0.0 0.0 0.00 0.00 0.00 62 1030.1
20260501221040 9 337 3.2 4.8 0.00 0.00 0.00 61 1030.3
20260501215540 10 315 0.0 0.0 0.00 0.00 0.00 60 1030.3
20260501214040 10 0 3.2 4.8 0.00 0.00 0.00 60 1030.2
20260501212540 10 315 1.6 3.2 0.00 0.00 0.00 59 1030.1
20260501211040 10 337 0.0 3.2 0.00 0.00 0.00 59 1030.1
20260501205540 10 337 0.0 3.2 0.00 0.00 0.00 57 1030.1
20260501204040 11 337 3.2 3.2 0.00 0.00 0.00 57 1030.2
20260501202540 11 292 1.6 3.2 0.00 0.00 0.00 56 1030.1
20260501201040 11 315 4.8 4.8 0.00 0.00 0.00 55 1030.1
20260501195540 11 292 3.2 4.8 0.00 0.00 0.00 54 1029.9
20260501194040 12 337 6.4 6.4 0.00 0.00 0.00 53 1029.9
20260501192540 12 315 0.0 6.4 0.00 0.00 0.00 53 1030.0
20260501191040 12 337 3.2 6.4 0.00 0.00 0.00 51 1030.1
20260501185540 12 292 0.0 3.2 0.00 0.00 0.00 49 1030.0
20260501184040 13 315 0.0 0.0 0.00 0.00 0.00 47 1029.9
20260501182540 14 337 4.8 4.8 0.00 0.00 0.00 46 1029.7
20260501181040 16 315 3.2 3.2 0.00 0.00 0.00 41 1029.6
20260501175540 17 292 0.0 4.8 0.00 0.00 0.00 38 1029.4
20260501174040 20 292 6.4 6.4 0.00 0.00 0.00 34 1029.2
20260501172540 21 337 3.2 3.2 0.00 0.00 0.00 32 1029.0
20260501171040 23 337 4.8 4.8 0.00 0.00 0.00 30 1028.9
20260501165540 22 270 0.0 0.0 0.00 0.00 0.00 29 1029.0
20260501164040 21 270 0.0 3.2 0.00 0.00 0.00 30 1029.1